Tracking 30990 objects as of 9-Jul-2025
HD Live streaming from Space Station
objects crossing your sky now

ERS 1

Track ERS 1 now!
10-day predictions
ERS 1 is classified as:


NORAD ID: 21574
Int'l Code: 1991-050A
Perigee: 745.7 km
Apogee: 790.8 km
Inclination: 98.8 °
Period: 100.1 minutes
Semi major axis: 7139 km
RCS: 11.0086 m2 (large)
Launch date: July 17, 1991
Source: European Space Agency (ESA)
Launch site: FRENCH GUIANA (FRGUI)
Your satellite tracking list
Your tracking list is empty




NASA's NSSDC Master Catalog

Two Line Element Set (TLE):
1 21574U 91050A   25189.62369913  .00000212  00000-0  83117-4 0  9997
2 21574  98.7914 196.6888 0031559 204.2681 155.7021 14.39210133780622
Source of the keplerian elements: AFSPC